Location: Biharia
(46.4333°N, 22.8000°E)
Time: 00:07:42
(UTC+00:00)

FENGYUN 1C DEB - Pass Details

Date: 19 August 2022
Orbit: 796 x 915 km, 98.9° (Epoch: 28 September)

Event Time Altitude Azimuth Distance (km) Brightness Sun altitude
Rises 23:16:44 0° 15° (NNE) 3,409 ? -30.2°
Reaches altitude 10° 23:19:08 10° 18° (NNE) 2,453 ? -30.1°
Enters shadow 23:23:52 65° 47° (NE) 900 ? -29.9°
